Wind_Speed
4 3 3 4 3 3 3 3 3 2 2 2 2 3 4 4 4 4 4 5 5 4 5 6 7 7 8 9 10 11 11 12 13 14 15 15 16 17
3 3 3 3 3 3 3 3 3 3 3 3 3 4 5 5 5 5 5 5 6 6 6 7 8 9 10 12 13 14 14 15 15 16 16 17 17 19
2 2 2 3 3 3 3 3 3 3 3 3 3 4 5 6 6 6 7 7 8 9 9 10 11 11 12 13 14 15 16 16 17 17 18 19 20 21
1 1 2 2 3 3 3 3 4 4 4 5 5 5 6 7 7 8 9 9 10 11 12 12 13 14 14 14 15 16 17 18 18 19 21 22 23 23
1 1 2 2 3 3 3 4 5 5 6 6 7 8 8 9 10 10 11 11 12 13 14 14 15 15 16 16 17 18 19 20 21 22 23 24 25 27
2 2 3 3 4 4 4 5 6 7 7 8 9 10 11 11 12 13 13 13 14 15 16 16 17 18 18 19 20 21 22 23 24 25 26 27 28 29
4 4 5 5 5 5 6 6 7 8 9 10 11 12 12 13 14 14 15 16 16 17 18 19 19 20 21 22 23 24 25 26 27 28 29 30 30 32
6 6 6 7 7 7 8 8 9 9 10 11 12 13 14 15 16 16 17 18 19 20 21 21 22 23 23 24 25 26 27 28 30 31 32 33 34 35
8 8 8 8 9 9 10 10 11 11 12 13 14 15 16 17 18 19 19 20 21 22 23 24 25 26 26 26 27 29 30 31 32 33 35 36 37 38
10 10 10 10 11 11 12 12 13 14 15 16 17 17 18 19 20 21 21 22 23 25 26 26 27 28 28 29 30 31 32 33 34 35 36 37 39 40
12 12 12 13 13 14 14 15 15 16 17 18 19 20 21 22 23 23 23 24 26 27 28 28 29 29 29 30 31 33 34 35 35 36 38 39 40 41
14 14 15 15 15 16 16 17 17 18 19 20 21 22 23 24 25 25 26 26 28 29 30 31 30 30 30 31 33 34 35 37 37 39 40 41 42 42
16 16 16 17 17 18 18 18 19 20 21 22 23 24 25 26 27 28 28 29 30 31 31 31 32 32 33 33 34 36 38 39 40 41 43 44 44 44
18 18 18 19 19 19 20 20 21 22 23 24 25 26 27 28 29 30 31 31 32 33 33 34 34 35 35 36 37 38 39 41 42 43 45 45 46 46
20 20 20 21 22 22 22 23 24 25 26 26 27 28 29 30 31 32 33 34 34 35 36 36 36 37 38 39 39 40 41 42 44 46 46 47 48 48
21 21 22 23 23 23 24 25 26 27 28 28 29 31 32 32 33 34 35 35 35 36 38 38 39 40 41 41 42 43 44 45 46 47 48 49 50 51
23 23 24 24 25 25 26 27 28 29 30 31 32 33 34 35 36 36 37 37 38 38 39 40 42 43 43 44 45 46 47 48 49 50 50 50 52 53
25 25 26 27 27 28 29 30 31 31 32 33 34 35 36 37 38 38 39 39 40 40 41 43 44 45 46 46 48 49 50 51 52 52 53 54 54 56
27 28 28 29 30 31 31 32 32 33 34 35 36 37 38 39 39 40 40 40 41 42 43 45 46 47 48 49 49 51 52 53 54 55 56 57 57 57
29 30 31 31 32 33 33 34 34 35 35 36 37 38 39 40 40 41 42 43 44 45 46 47 49 50 51 52 52 54 55 56 56 56 57 58 58 58
31 32 33 33 34 34 35 35 36 36 37 38 39 40 41 42 43 44 44 45 46 47 48 50 51 53 54 55 55 55 57 58 58 59 59 59 59 58
32 33 33 34 34 35 35 36 37 37 38 39 40 42 43 45 45 46 47 48 49 50 51 53 54 55 56 56 57 57 58 59 60 61 61 61 61 60
32 33 34 35 35 36 37 38 39 39 40 42 43 44 45 46 47 48 49 50 52 53 54 55 56 57 58 59 59 59 60 60 60 61 60 60 60 60
Wind_Direction
81 84 71 58 51 46 38 40 40 41 42 38 28 20 8 359 346 336 323 313 310 305 296 293 291 293 293 293 291 288 286 285 285 282 279 279 279 280
80 83 66 49 45 40 35 28 22 22 22 17 3 353 350 352 344 336 326 315 308 305 302 296 295 295 292 288 288 287 289 287 286 287 285 284 284 284
77 59 42 27 25 23 17 3 2 3 4 355 344 339 337 339 339 332 324 320 319 316 311 306 302 297 299 293 292 291 291 291 291 290 289 289 288 287
31 12 8 5 2 355 346 336 334 334 333 331 327 323 324 327 327 326 325 323 320 317 314 310 308 305 302 300 298 297 295 295 294 294 293 291 290 289
283 303 333 337 334 331 329 324 321 320 320 321 320 320 323 323 321 321 321 320 319 316 313 310 307 305 303 302 300 300 299 297 296 295 295 294 292 291
268 280 300 306 309 313 314 316 318 319 320 321 322 321 322 321 320 320 318 317 315 313 312 310 308 306 304 302 301 301 301 300 298 297 297 296 296 295
270 277 285 290 293 297 299 302 306 311 313 316 317 317 317 316 316 316 314 313 313 312 311 310 308 307 304 302 301 300 299 299 299 298 298 298 297 296
271 277 283 286 290 293 297 299 302 306 308 310 312 312 313 312 313 313 311 312 312 312 311 310 308 308 305 303 301 300 300 299 299 299 299 298 297 296
273 279 283 286 289 293 295 297 301 304 306 307 308 309 309 309 310 309 309 311 312 312 312 310 309 309 307 304 303 302 301 302 301 301 300 300 299 298
275 281 283 284 287 291 293 293 295 299 301 303 305 306 307 307 308 307 307 308 309 310 310 309 309 308 307 305 304 304 303 303 302 301 301 300 299 298
272 277 281 283 287 290 291 292 294 296 298 301 303 305 305 306 306 305 306 306 306 308 309 308 307 306 305 305 306 305 305 304 304 303 302 302 301 300
271 275 278 282 285 288 289 291 293 295 297 299 302 304 305 305 304 304 305 306 306 307 307 307 306 305 305 305 305 305 305 305 304 304 304 304 303 302
274 276 278 281 284 287 289 291 294 296 297 299 302 303 304 304 303 303 304 305 306 306 306 305 306 305 305 305 305 305 305 306 306 306 306 305 304 302
274 276 278 282 285 288 289 291 294 296 297 298 300 302 303 305 304 304 304 305 305 305 305 305 305 305 306 306 305 305 305 306 305 306 306 305 305 303
273 276 278 281 284 286 288 290 292 295 296 297 299 301 302 304 305 304 304 304 305 305 305 305 305 306 306 306 306 305 306 306 305 306 306 306 305 304
272 275 278 281 283 285 288 290 292 294 295 296 298 300 301 302 303 303 303 303 303 303 304 305 306 306 306 306 306 306 306 306 306 306 306 305 305 304
275 277 279 282 284 286 289 291 293 294 295 296 298 299 300 301 303 303 303 302 303 303 303 304 305 305 305 306 306 306 306 307 307 306 305 305 304 304
273 276 279 281 283 286 289 291 293 294 295 296 297 298 299 300 301 302 303 302 302 303 303 304 304 305 305 305 306 306 306 306 306 305 305 304 304 304
274 277 280 283 285 288 290 291 293 294 295 296 297 299 300 301 301 302 302 302 302 302 303 303 303 304 304 304 304 305 305 305 305 305 305 305 305 304
277 279 281 284 286 288 290 292 293 294 295 295 297 298 299 300 301 301 301 302 302 303 303 303 304 303 303 304 304 305 305 305 305 305 304 305 305 305
278 280 283 284 286 289 290 292 293 293 294 295 297 298 299 300 300 301 301 302 303 303 303 303 304 304 304 304 305 305 306 305 305 305 305 305 305 304
280 282 284 285 287 289 291 292 293 294 295 296 297 298 299 299 300 300 301 302 302 303 303 304 304 304 304 304 305 305 305 305 305 306 306 305 305 304
281 283 284 287 288 290 291 292 293 294 295 297 298 299 300 300 300 300 301 302 302 303 303 304 305 305 304 304 305 305 306 305 305 305 305 305 305 305
Height
5876 5876 5876 5876 5876 5875 5875 5874 5874 5873 5872 5871 5870 5869 5868 5867 5866 5865 5864 5863 5862 5861 5860 5859 5859 5858 5857 5856 5855 5854 5854 5853 5852 5851 5850 5850 5849 5849
5877 5877 5877 5876 5876 5875 5875 5874 5874 5873 5872 5871 5870 5869 5868 5867 5866 5864 5863 5862 5861 5860 5858 5858 5857 5856 5855 5854 5853 5852 5851 5850 5848 5847 5846 5846 5845 5844
5878 5877 5877 5877 5876 5875 5875 5874 5873 5873 5872 5871 5870 5869 5867 5866 5865 5863 5862 5861 5859 5858 5856 5855 5854 5853 5851 5850 5849 5848 5847 5846 5844 5843 5842 5841 5839 5838
5878 5877 5877 5877 5876 5875 5875 5874 5873 5872 5872 5870 5869 5868 5867 5865 5864 5862 5860 5859 5857 5856 5854 5852 5850 5849 5848 5846 5845 5843 5842 5841 5839 5838 5836 5835 5833 5832
5877 5877 5877 5876 5876 5875 5874 5874 5873 5871 5870 5869 5868 5867 5865 5864 5862 5860 5858 5856 5854 5853 5851 5849 5847 5845 5843 5842 5840 5839 5837 5836 5834 5832 5831 5829 5827 5825
5877 5877 5876 5876 5875 5874 5874 5873 5872 5871 5869 5868 5867 5865 5863 5861 5860 5858 5856 5854 5851 5849 5847 5844 5842 5840 5838 5836 5834 5833 5831 5830 5828 5826 5824 5822 5820 5817
5876 5875 5875 5874 5874 5873 5872 5871 5870 5869 5868 5866 5865 5863 5861 5859 5857 5855 5853 5850 5848 5845 5842 5839 5837 5834 5832 5830 5828 5826 5825 5823 5820 5818 5816 5814 5811 5809
5874 5874 5873 5873 5872 5871 5870 5869 5868 5867 5866 5864 5862 5861 5859 5856 5854 5851 5849 5847 5844 5841 5837 5834 5831 5828 5825 5823 5821 5819 5817 5815 5812 5810 5807 5804 5802 5799
5872 5872 5871 5870 5870 5869 5868 5867 5865 5864 5863 5861 5859 5857 5855 5853 5850 5847 5845 5842 5839 5835 5832 5828 5825 5821 5818 5815 5813 5811 5808 5806 5803 5800 5797 5794 5791 5788
5869 5869 5868 5868 5867 5866 5865 5864 5862 5861 5859 5857 5855 5853 5851 5848 5846 5843 5840 5837 5833 5830 5826 5823 5819 5815 5811 5808 5805 5803 5800 5797 5794 5791 5787 5784 5780 5776
5866 5866 5865 5865 5864 5863 5862 5860 5859 5857 5855 5853 5851 5848 5846 5843 5840 5838 5835 5832 5828 5824 5820 5816 5812 5809 5805 5801 5797 5794 5791 5787 5784 5780 5777 5773 5768 5764
5863 5862 5862 5861 5860 5858 5857 5856 5854 5852 5851 5849 5846 5844 5841 5838 5835 5832 5829 5826 5822 5818 5813 5809 5805 5801 5798 5795 5790 5786 5782 5778 5774 5770 5766 5761 5757 5752
5858 5858 5857 5856 5855 5854 5853 5851 5850 5848 5845 5843 5841 5838 5835 5832 5829 5825 5822 5818 5815 5811 5806 5802 5798 5794 5790 5787 5783 5778 5773 5769 5764 5760 5755 5750 5745 5740
5854 5853 5852 5851 5850 5849 5847 5846 5844 5842 5840 5838 5835 5832 5829 5826 5822 5818 5815 5811 5807 5803 5798 5794 5790 5786 5782 5778 5774 5769 5764 5759 5754 5749 5743 5738 5732 5727
5848 5847 5847 5846 5844 5843 5842 5840 5838 5836 5834 5831 5829 5826 5822 5819 5815 5811 5807 5803 5799 5795 5790 5786 5781 5777 5772 5768 5764 5759 5754 5749 5743 5737 5731 5725 5720 5714
5842 5842 5841 5840 5838 5837 5835 5833 5831 5829 5827 5824 5822 5818 5815 5811 5808 5803 5799 5795 5791 5787 5782 5777 5772 5768 5763 5758 5753 5748 5743 5737 5732 5725 5719 5713 5706 5700
5836 5835 5834 5833 5832 5830 5828 5826 5824 5822 5819 5816 5813 5810 5807 5803 5799 5795 5790 5786 5782 5778 5773 5768 5763 5757 5752 5747 5742 5736 5730 5725 5719 5712 5706 5700 5694 5686
5830 5829 5828 5826 5825 5823 5821 5819 5816 5814 5811 5808 5805 5801 5798 5794 5790 5786 5781 5777 5773 5768 5763 5758 5753 5747 5742 5736 5730 5724 5718 5712 5706 5699 5692 5686 5680 5673
5823 5821 5820 5819 5817 5815 5813 5810 5808 5805 5802 5799 5796 5792 5788 5784 5780 5776 5771 5767 5762 5757 5752 5747 5741 5735 5730 5725 5719 5712 5705 5699 5692 5685 5678 5671 5664 5658
5814 5813 5812 5810 5808 5806 5804 5801 5798 5795 5792 5789 5786 5782 5778 5774 5769 5765 5760 5756 5751 5746 5741 5735 5728 5722 5716 5711 5706 5699 5690 5683 5677 5670 5663 5656 5648 5641
5806 5804 5803 5801 5799 5796 5794 5791 5788 5785 5782 5779 5775 5771 5767 5763 5758 5754 5749 5744 5739 5733 5728 5722 5715 5708 5702 5696 5690 5684 5676 5667 5660 5653 5646 5639 5633 5626
5797 5795 5793 5791 5789 5787 5784 5781 5778 5775 5772 5768 5764 5760 5756 5751 5746 5741 5736 5731 5726 5720 5714 5708 5701 5694 5687 5681 5674 5668 5661 5653 5644 5635 5627 5620 5613 5607
5787 5786 5784 5781 5779 5776 5773 5770 5767 5764 5760 5757 5752 5748 5743 5738 5733 5728 5723 5717 5711 5705 5699 5693 5686 5679 5671 5664 5658 5651 5644 5637 5628 5621 5613 5604 5596 5588